Temp
83 83 82 81 77 72 71 70 68 67 68 67 67 67 65 66 66 67 65 66 66 67 65 63 64 62 60 59 59 58 57 58 57 54 55 57 57 57 55 56 56 56 56
82 80 80 79 73 72 70 70 70 68 69 69 69 69 68 67 67 66 65 65 65 65 66 64 62 61 60 58 57 55 54 55 55 49 50 45 51 54 56 53 55 51 53
80 79 78 77 73 72 70 70 70 69 69 70 71 69 68 66 65 64 63 64 65 65 64 63 61 60 59 56 55 54 53 50 52 51 46 41 39 45 50 51 51 50 49
82 80 78 77 74 72 72 71 71 69 70 70 69 66 66 65 65 63 63 63 65 65 64 62 61 59 57 54 54 55 51 50 46 48 53 47 45 39 38 47 47 49 51
64 78 79 78 78 74 72 71 70 69 70 69 69 67 66 67 67 65 62 62 62 63 63 62 60 56 55 53 52 50 49 47 45 44 44 44 44 44 39 36 42 46 48
82 82 80 79 77 73 71 71 70 70 69 69 67 67 65 65 65 63 61 61 61 61 61 61 57 55 53 52 51 50 48 45 45 44 44 42 40 40 38 36 38 39 44
83 80 78 77 76 72 71 70 70 69 69 68 67 67 66 66 64 63 63 62 61 59 58 57 54 52 51 51 51 48 47 45 43 43 42 43 43 43 42 39 37 37 42
80 82 80 77 76 72 71 71 70 69 69 68 67 67 67 67 67 66 65 64 62 60 58 55 52 51 52 51 50 47 46 45 43 43 42 42 43 44 42 40 37 33 37
79 80 81 75 74 72 70 69 70 70 69 67 66 66 66 66 66 66 65 65 61 59 55 52 51 51 50 50 49 46 44 44 43 42 42 41 42 41 42 42 40 36 27
78 79 81 77 74 72 70 69 69 69 66 65 66 67 66 66 66 65 63 61 59 56 53 51 51 50 50 49 48 45 45 43 42 43 42 41 41 41 40 40 40 39 35
75 78 80 75 73 73 70 68 70 67 64 65 66 65 65 65 64 63 60 59 56 54 52 52 50 50 49 48 46 45 44 43 42 42 41 41 41 39 40 40 40 38 37
75 76 76 71 76 73 71 70 69 66 65 65 66 64 64 63 60 59 58 57 54 53 53 51 51 51 49 47 45 44 44 42 41 41 40 40 45 39 39 38 37 36 38
73 73 73 73 74 73 72 71 69 67 69 67 65 63 62 60 58 58 56 55 53 52 51 52 50 49 48 46 45 45 44 43 42 40 39 40 39 35 36 36 35 36 39
72 71 70 71 71 71 71 70 68 69 69 67 65 61 59 59 58 56 55 53 52 50 50 50 49 48 48 47 47 46 43 42 42 42 40 40 38 35 33 35 33 35 33
71 70 69 68 69 69 69 70 70 70 68 65 62 59 59 59 57 54 52 51 51 51 50 48 47 47 45 43 38 40 41 40 40 41 43 40 40 39 37 35 31 31 31
72 71 70 69 68 67 68 69 65 65 65 62 60 59 58 57 53 51 51 50 50 49 48 47 46 44 42 36 36 35 36 41 41 38 39 40 40 37 37 37 36 34 29
72 71 69 68 67 65 66 65 64 65 63 62 60 58 56 54 52 52 50 49 47 47 45 45 45 39 35 36 36 35 35 38 38 38 37 40 40 36 35 35 36 36 38
73 71 70 67 67 67 66 65 65 64 63 61 58 57 55 52 51 50 50 47 47 45 44 43 44 40 36 35 35 35 33 36 39 39 38 36 33 31 32 31 31 33 35
74 72 70 68 67 66 65 64 64 63 62 59 57 56 54 51 51 50 48 47 46 45 44 44 43 38 34 35 34 34 36 38 38 40 34 36 30 32 32 30 29 29 31
75 71 70 68 65 65 65 63 62 61 59 58 56 56 54 52 51 49 47 47 46 46 46 44 43 39 35 35 35 34 35 35 34 35 32 32 30 31 31 27 27 26 27
74 72 69 66 65 65 63 61 60 59 59 58 56 54 54 53 51 49 48 47 45 44 42 42 40 41 36 33 35 35 35 32 31 32 32 30 33 32 32 31 27 27 28
72 71 67 65 65 64 63 61 59 61 59 57 55 55 53 54 52 47 46 46 44 41 39 39 38 39 36 35 35 35 34 32 31 31 32 31 33 33 32 31 32 31 29
71 70 66 65 63 63 63 60 60 60 57 55 53 52 53 51 49 46 44 44 43 41 39 38 37 37 39 35 35 35 34 33 29 31 31 33 33 34 31 33 32 28 28
69 68 66 63 60 63 63 63 60 59 56 53 51 50 49 47 48 48 46 42 41 39 38 37 36 36 35 33 32 32 31 33 31 29 28 28 28 28 27 29 31 30 26
69 67 64 63 61 63 63 63 60 58 54 52 50 48 47 46 45 43 41 43 35 39 38 37 36 34 28 29 30 30 29 26 27 23 25 26 26 26 25 26 28 28 28
69 65 64 62 62 62 63 61 59 57 53 49 48 46 44 44 43 38 32 34 33 34 34 34 31 30 31 31 31 31 30 29 29 24 22 24 22 23 23 24 23 24 24
MSLP
1011.22 1012.59 1013.68 1014.95 1016.52 1018.14 1019.52 1020.51 1021.35 1022.07 1022.42 1022.83 1023.12 1023.63 1023.97 1024.49 1025.00 1025.47 1026.10 1026.23 1026.38 1026.48 1026.55 1026.85 1026.90 1027.30 1027.75 1028.08 1028.17 1028.19 1027.98 1027.78 1027.71 1027.84 1027.59 1026.71 1026.24 1026.84 1027.16 1026.77 1026.91 1027.24 1027.25
1010.34 1011.82 1012.93 1014.14 1015.96 1017.45 1018.91 1020.04 1020.84 1021.73 1022.16 1022.52 1022.77 1023.27 1023.68 1024.40 1024.80 1025.48 1025.97 1026.21 1026.51 1026.66 1026.67 1026.81 1027.29 1027.63 1027.97 1028.39 1028.58 1028.81 1028.77 1028.61 1028.48 1028.62 1028.22 1028.10 1027.20 1027.18 1027.68 1027.39 1027.46 1027.62 1027.64
1010.09 1012.07 1013.08 1013.91 1015.53 1016.80 1018.26 1019.49 1020.34 1021.25 1021.77 1021.98 1022.28 1022.85 1023.50 1024.19 1024.85 1025.49 1026.01 1026.34 1026.61 1026.73 1026.91 1027.31 1027.72 1027.92 1028.15 1028.69 1028.97 1029.38 1029.36 1029.49 1029.21 1029.20 1029.45 1029.31 1029.19 1029.17 1028.32 1028.23 1028.31 1028.29 1028.24
1008.33 1010.65 1012.39 1013.88 1014.97 1016.33 1017.81 1019.01 1019.78 1020.79 1021.27 1021.35 1021.92 1022.63 1023.40 1024.02 1024.58 1025.32 1025.80 1026.34 1026.60 1026.86 1027.23 1027.68 1028.07 1028.26 1028.74 1029.28 1029.46 1029.75 1029.98 1029.96 1030.13 1029.99 1030.09 1030.11 1030.20 1030.23 1029.71 1029.37 1029.06 1028.93 1028.84
1010.84 1009.80 1011.27 1012.83 1014.34 1015.99 1017.39 1018.53 1019.41 1020.21 1020.65 1021.09 1021.59 1022.35 1023.06 1023.50 1024.14 1024.90 1025.69 1026.29 1026.68 1027.02 1027.46 1027.90 1028.24 1028.84 1029.29 1029.90 1029.92 1030.23 1030.50 1030.70 1030.76 1030.92 1030.91 1030.76 1030.62 1030.62 1030.73 1030.36 1030.07 1029.60 1029.34
1008.57 1009.03 1010.45 1011.85 1013.27 1015.54 1017.16 1018.21 1019.01 1019.75 1020.21 1020.78 1021.35 1022.00 1022.61 1023.11 1023.81 1024.76 1025.58 1026.23 1026.78 1027.21 1027.63 1028.01 1028.73 1029.31 1029.89 1030.08 1030.20 1030.45 1030.77 1031.18 1031.23 1031.38 1031.25 1031.26 1031.22 1031.24 1031.26 1031.00 1030.69 1030.40 1029.85
1007.58 1008.38 1009.70 1011.24 1012.60 1014.78 1016.55 1017.88 1018.73 1019.43 1019.92 1020.64 1021.24 1021.92 1022.38 1022.75 1023.46 1024.43 1025.27 1025.88 1026.52 1027.23 1027.83 1028.37 1029.13 1029.87 1030.27 1030.29 1030.37 1030.74 1030.99 1031.38 1031.53 1031.61 1031.58 1031.51 1031.29 1031.28 1031.33 1031.24 1031.17 1030.94 1030.44
1007.78 1007.97 1008.49 1010.51 1012.33 1014.04 1015.93 1017.29 1018.24 1019.01 1019.71 1020.47 1021.14 1021.65 1022.07 1022.59 1023.22 1023.98 1024.73 1025.26 1025.89 1026.78 1027.65 1028.70 1029.58 1030.12 1030.25 1030.44 1030.54 1030.96 1031.18 1031.39 1031.60 1031.67 1031.74 1031.67 1031.42 1031.41 1031.39 1031.36 1031.35 1031.26 1031.00
1008.10 1008.10 1008.27 1010.26 1011.86 1013.55 1014.97 1016.56 1017.77 1018.61 1019.42 1020.18 1020.95 1021.64 1022.08 1022.40 1022.95 1023.63 1024.17 1024.76 1025.61 1026.82 1027.94 1029.09 1029.91 1030.11 1030.49 1030.58 1030.57 1031.13 1031.51 1031.53 1031.63 1031.63 1031.82 1031.85 1031.62 1031.70 1031.50 1031.45 1031.39 1031.41 1031.32
1008.52 1008.41 1008.43 1009.91 1011.64 1013.25 1014.96 1016.21 1017.53 1018.26 1019.26 1020.20 1020.73 1021.25 1021.77 1022.24 1022.72 1023.39 1024.02 1024.91 1025.87 1027.09 1028.33 1029.40 1029.88 1030.32 1030.53 1030.69 1030.80 1031.10 1031.48 1031.64 1031.80 1031.82 1031.94 1031.98 1031.92 1031.89 1031.72 1031.57 1031.43 1031.35 1031.40
1009.14 1009.09 1009.30 1010.39 1011.70 1013.10 1014.65 1015.76 1017.05 1018.12 1019.18 1020.04 1020.79 1021.03 1021.64 1022.22 1022.79 1023.34 1024.26 1025.16 1026.35 1027.56 1028.56 1029.33 1029.96 1030.12 1030.46 1030.71 1031.12 1031.24 1031.56 1031.72 1031.87 1032.05 1032.11 1032.02 1031.99 1032.19 1031.95 1031.55 1031.64 1031.62 1031.51
1009.51 1009.79 1010.23 1011.15 1011.51 1012.77 1014.15 1015.28 1016.54 1017.76 1018.88 1019.85 1020.38 1021.08 1021.75 1022.46 1023.17 1023.79 1024.64 1025.51 1026.73 1027.83 1028.58 1029.45 1029.66 1029.95 1030.41 1030.89 1031.31 1031.50 1031.75 1031.87 1032.04 1032.22 1032.24 1032.16 1032.07 1032.38 1032.29 1032.29 1032.23 1032.06 1031.79
1009.77 1010.34 1010.86 1011.26 1011.69 1012.56 1013.64 1014.94 1016.20 1017.34 1018.10 1019.23 1020.04 1020.96 1021.82 1022.83 1023.43 1024.15 1025.01 1025.99 1027.08 1028.05 1028.80 1029.21 1029.61 1030.03 1030.55 1031.02 1031.38 1031.65 1031.83 1032.01 1032.16 1032.44 1032.44 1032.44 1032.54 1032.80 1032.99 1033.08 1032.90 1032.66 1032.38
1009.72 1010.55 1011.24 1011.74 1012.28 1012.87 1013.66 1014.63 1015.87 1016.76 1017.47 1018.64 1019.78 1020.89 1021.93 1022.97 1023.77 1024.55 1025.44 1026.47 1027.48 1028.30 1028.68 1029.23 1029.73 1030.26 1030.63 1031.04 1031.29 1031.49 1031.83 1031.94 1032.02 1032.22 1032.41 1032.41 1032.78 1033.14 1033.33 1033.39 1033.36 1033.24 1032.95
1009.52 1010.41 1011.23 1011.86 1012.40 1013.08 1013.70 1014.46 1015.44 1016.24 1017.21 1018.54 1019.85 1021.08 1022.01 1023.10 1024.16 1025.08 1026.07 1027.02 1027.67 1028.12 1028.75 1029.49 1029.99 1030.34 1030.90 1031.86 1032.50 1032.27 1031.94 1032.00 1032.05 1032.01 1032.00 1032.21 1032.55 1032.92 1033.16 1033.35 1033.60 1033.60 1033.27
1008.81 1009.96 1011.05 1011.88 1012.54 1013.28 1013.97 1014.70 1015.71 1016.60 1017.46 1018.70 1020.06 1021.14 1022.29 1023.41 1024.64 1025.72 1026.57 1027.18 1027.74 1028.32 1029.00 1029.63 1030.10 1030.59 1031.80 1032.97 1033.15 1033.27 1032.92 1032.07 1032.06 1032.12 1032.20 1032.11 1032.34 1032.84 1033.09 1033.27 1033.38 1033.58 1033.16
1007.99 1009.41 1010.70 1011.92 1012.83 1013.61 1014.28 1015.03 1015.96 1016.88 1017.84 1018.95 1020.16 1021.28 1022.57 1023.79 1024.98 1025.94 1026.71 1027.33 1027.90 1028.53 1029.16 1029.71 1030.19 1031.20 1032.43 1032.94 1033.23 1033.44 1033.19 1032.44 1032.11 1032.17 1032.25 1032.23 1032.69 1033.10 1033.29 1033.44 1033.33 1033.00 1032.27
1007.13 1008.79 1010.20 1011.66 1012.85 1013.82 1014.59 1015.37 1016.22 1017.07 1017.91 1019.00 1020.20 1021.33 1022.70 1023.99 1025.16 1026.04 1026.61 1027.28 1027.91 1028.52 1029.17 1029.73 1030.26 1031.22 1032.44 1032.95 1033.36 1033.45 1033.24 1032.57 1031.78 1031.85 1031.98 1032.21 1033.09 1033.58 1033.64 1033.56 1033.36 1032.98 1032.32
1006.47 1008.33 1009.87 1011.36 1012.71 1013.72 1014.62 1015.48 1016.11 1016.93 1017.79 1018.91 1020.18 1021.44 1022.68 1023.91 1024.94 1025.71 1026.45 1027.10 1027.73 1028.38 1028.96 1029.56 1030.21 1031.21 1032.52 1033.06 1033.38 1033.36 1032.64 1032.16 1031.93 1031.85 1032.69 1032.38 1033.48 1033.75 1033.77 1033.72 1033.44 1033.07 1032.50
1006.21 1008.05 1009.77 1011.15 1012.45 1013.53 1014.46 1015.31 1015.98 1016.69 1017.65 1018.83 1020.07 1021.43 1022.66 1023.67 1024.49 1025.29 1026.12 1026.81 1027.51 1028.11 1028.70 1029.40 1030.08 1030.95 1032.35 1033.01 1033.22 1033.29 1032.81 1032.54 1032.45 1032.44 1033.32 1033.47 1033.74 1033.82 1033.89 1033.93 1033.54 1033.20 1032.92
1006.93 1008.53 1009.97 1011.27 1012.42 1013.52 1014.38 1015.11 1015.98 1016.87 1017.89 1019.04 1020.27 1021.52 1022.45 1023.23 1024.10 1025.07 1025.86 1026.55 1027.28 1027.97 1028.61 1029.24 1029.98 1030.59 1031.96 1032.88 1032.92 1033.04 1032.86 1033.19 1033.12 1032.89 1033.05 1033.65 1033.62 1033.60 1033.52 1033.49 1033.44 1033.27 1033.06
1007.83 1009.21 1010.59 1011.58 1012.53 1013.47 1014.31 1014.98 1015.88 1016.95 1018.24 1019.45 1020.45 1021.17 1021.96 1022.81 1023.88 1024.80 1025.63 1026.31 1027.07 1027.99 1028.62 1029.19 1029.90 1030.48 1031.43 1032.01 1032.56 1032.86 1033.04 1033.29 1033.15 1033.12 1033.11 1033.18 1033.09 1033.23 1033.14 1033.06 1032.93 1032.83 1032.77
1008.54 1009.75 1010.97 1012.06 1012.95 1013.79 1014.48 1014.92 1015.82 1016.92 1018.22 1019.52 1020.57 1021.41 1022.20 1022.93 1023.86 1024.70 1025.44 1026.21 1027.02 1027.81 1028.40 1028.96 1029.51 1029.99 1030.61 1031.55 1032.11 1032.60 1032.92 1033.17 1033.39 1033.20 1033.40 1033.29 1033.06 1032.81 1032.85 1032.69 1032.66 1032.64 1032.50
1009.18 1010.16 1011.20 1012.23 1013.28 1014.03 1014.64 1015.18 1016.09 1017.17 1018.26 1019.38 1020.60 1021.64 1022.48 1023.29 1024.16 1024.85 1025.54 1026.30 1027.05 1027.48 1028.02 1028.62 1029.29 1029.88 1030.44 1031.33 1032.07 1032.47 1032.77 1032.79 1033.01 1033.45 1033.45 1033.22 1032.93 1032.76 1032.86 1032.61 1032.35 1032.23 1032.29
1009.53 1010.36 1011.29 1012.14 1013.22 1014.13 1014.60 1015.02 1016.18 1017.36 1018.60 1019.53 1020.49 1021.54 1022.56 1023.44 1024.30 1025.33 1026.22 1026.43 1027.58 1027.28 1027.77 1028.51 1029.09 1029.83 1031.03 1031.99 1032.46 1032.62 1032.88 1033.29 1033.45 1033.78 1033.41 1032.94 1032.50 1032.42 1032.46 1032.48 1032.32 1032.18 1032.06
1009.51 1010.31 1011.16 1012.02 1013.04 1013.91 1014.52 1015.23 1016.14 1017.24 1018.48 1019.59 1020.49 1021.32 1022.29 1023.24 1024.31 1025.64 1027.19 1027.87 1028.16 1028.19 1028.57 1029.01 1029.61 1030.64 1031.22 1031.99 1032.47 1032.79 1033.06 1033.30 1033.51 1033.67 1033.37 1032.97 1032.74 1032.78 1032.57 1032.39 1032.24 1032.20 1032.24
Wind_Speed
18 19 17 18 20 16 15 12 13 10 8 5 6 6 4 5 4 6 6 6 4 3 3 4 3 5 5 5 6 5 6 6 4 4 7 8 1 8 6 4 5 7 6
21 21 18 18 20 19 17 14 15 13 9 7 6 7 6 5 4 6 5 6 4 3 1 4 6 6 5 6 6 6 4 4 5 4 5 4 5 9 9 5 6 6 5
21 19 19 18 20 20 18 16 15 15 11 10 6 5 7 4 5 6 4 4 5 3 6 7 5 3 5 4 5 6 7 4 5 8 3 4 4 7 6 7 6 7 4
25 23 21 18 19 17 16 16 16 16 12 9 8 8 6 7 6 5 5 5 5 5 6 6 5 5 6 7 6 6 4 5 5 5 6 5 3 2 5 5 5 6 7
12 23 22 20 18 17 16 15 16 16 12 9 10 8 8 6 6 6 10 6 5 6 6 6 5 8 6 5 5 6 6 5 4 4 4 4 4 5 4 5 6 5 5
23 21 21 20 18 17 16 13 16 16 12 11 10 10 8 8 8 8 7 5 4 4 6 6 8 7 6 3 5 5 7 5 5 4 4 4 3 3 3 3 5 5 6
3 17 20 19 19 20 18 13 15 16 13 12 8 10 7 6 11 11 7 8 6 5 5 8 6 5 4 3 5 5 6 5 4 4 3 3 3 3 3 3 4 5 5
6 7 22 18 18 21 19 16 17 16 14 12 9 10 7 4 7 9 7 7 7 7 8 9 8 6 3 5 4 4 4 4 3 4 4 3 3 3 3 3 3 4 5
5 10 15 16 18 20 19 17 16 14 13 12 8 8 6 6 6 8 6 6 11 10 11 9 6 5 6 4 4 5 4 4 4 3 4 3 3 4 4 3 2 3 3
3 6 5 17 14 18 16 15 13 12 12 11 9 8 8 6 6 6 8 12 11 13 11 7 6 6 4 5 5 4 5 3 3 4 3 3 4 4 4 3 3 3 3
4 3 3 14 12 18 17 16 14 13 12 11 10 7 8 6 8 9 12 11 13 12 10 7 7 6 6 5 5 2 5 3 4 3 4 4 4 4 4 3 3 4 3
7 3 3 9 9 15 16 16 13 14 13 11 10 8 7 7 11 11 12 12 12 9 8 7 6 6 6 6 5 5 3 3 3 4 5 5 5 6 6 6 7 5 5
8 7 5 4 5 11 14 15 14 14 15 15 11 11 9 10 12 12 12 13 11 9 8 7 6 6 5 5 4 3 2 2 2 4 4 5 5 7 7 7 6 6 7
10 8 7 8 7 7 8 14 15 15 14 15 13 11 12 11 11 12 12 11 10 9 7 6 6 6 5 5 2 3 2 1 3 2 0 2 5 4 3 5 6 7 7
12 11 10 8 8 8 8 10 12 12 15 14 13 12 12 12 11 11 12 11 9 8 8 7 6 6 7 6 6 7 5 1 2 1 1 3 5 6 3 2 4 6 5
14 13 12 12 12 11 10 11 12 12 13 14 14 13 12 12 12 11 10 9 8 9 8 7 6 5 9 9 7 6 7 5 3 3 4 3 6 5 6 6 6 9 9
14 14 14 13 11 12 11 11 12 13 13 14 14 14 13 13 12 11 11 10 8 8 6 6 6 12 9 8 5 5 6 6 2 2 3 4 7 9 5 7 10 12 17
15 15 14 14 13 13 12 12 14 14 15 15 15 14 14 13 12 12 11 9 8 8 6 6 6 11 8 8 2 6 6 8 2 2 0 2 8 7 6 6 7 8 9
13 13 13 13 14 14 14 14 15 15 15 15 15 15 14 14 13 12 11 10 8 7 7 6 6 11 8 8 2 6 7 5 4 5 9 5 10 9 12 7 7 8 8
14 15 15 14 14 14 15 15 15 15 15 16 15 14 14 14 14 12 10 7 8 7 6 7 6 12 10 10 5 4 4 5 5 6 8 14 8 8 8 5 6 7 7
15 14 14 13 13 13 15 15 15 15 14 15 15 15 15 13 12 11 8 8 7 7 6 6 7 6 13 8 8 2 2 4 3 3 2 4 9 8 9 8 5 4 9
13 13 11 12 13 14 14 15 15 14 15 15 16 15 14 11 11 11 9 8 7 7 6 6 6 5 11 14 11 8 4 2 3 4 3 6 15 10 12 8 7 11 8
10 10 10 11 11 13 13 15 15 17 16 15 14 13 13 12 12 10 9 7 7 6 6 5 5 5 7 8 15 11 8 5 2 4 6 11 13 9 6 8 10 7 5
8 9 10 11 11 12 13 13 15 17 16 16 14 12 11 11 10 8 7 6 5 5 5 5 4 4 4 6 6 3 3 5 3 5 5 6 9 6 5 4 4 3 2
7 8 9 10 12 13 13 14 17 16 15 14 13 12 9 9 8 6 2 4 6 3 4 3 3 3 7 5 8 5 3 3 4 4 4 4 2 1 1 2 2 2 3
7 8 9 10 12 13 13 15 16 17 15 14 11 10 9 8 8 8 8 18 12 17 18 14 10 8 15 13 10 7 3 1 4 3 3 4 1 2 2 2 1 2 3
Wind_Direction
171 160 171 154 138 144 150 156 151 161 148 175 161 148 165 127 145 116 155 145 141 97 91 145 122 92 68 54 30 356 1 357 31 24 326 337 36 65 2 23 37 36 30
168 163 166 156 147 150 155 163 160 165 165 175 180 167 139 146 140 130 152 127 132 142 142 69 65 17 100 66 52 13 0 348 30 20 327 334 311 14 355 356 28 35 31
164 161 168 159 149 156 160 168 164 166 180 181 160 149 130 142 126 131 145 147 137 188 84 69 79 79 57 60 57 29 22 352 2 15 50 353 12 332 5 6 8 19 14
165 163 166 167 157 160 160 168 162 169 191 170 160 152 157 162 159 152 151 137 160 121 97 91 84 56 71 44 38 45 16 23 4 4 12 14 352 339 324 4 348 354 7
82 193 165 170 165 162 163 171 164 172 184 173 158 159 166 171 154 155 132 142 138 116 113 107 88 67 72 73 65 67 36 28 23 17 359 1 352 0 7 314 345 357 343
184 170 165 167 167 158 161 171 169 176 173 179 161 167 176 180 151 134 143 148 141 126 120 107 79 78 85 72 78 57 62 38 40 15 357 9 357 4 343 341 328 346 327
255 158 167 169 167 159 162 170 174 178 173 177 162 171 192 167 146 144 162 158 151 137 133 106 106 90 80 72 79 56 72 58 35 54 1 348 357 20 337 341 337 333 330
286 252 171 166 167 156 163 174 179 178 174 169 176 175 191 155 152 154 175 164 153 138 113 95 92 106 122 87 53 68 54 69 36 45 40 323 349 18 353 347 346 334 335
258 265 161 171 162 161 164 173 180 177 169 166 175 174 188 166 154 165 165 151 111 113 104 103 117 123 81 76 91 99 56 22 48 8 35 350 17 8 321 341 345 323 324
216 268 161 151 155 160 163 163 177 180 159 165 175 190 171 161 166 151 118 108 112 107 108 122 137 109 133 86 55 76 72 28 43 53 13 8 27 321 347 318 332 334 323
221 205 138 141 167 156 163 163 175 157 155 168 189 177 166 154 127 114 110 115 109 116 125 145 126 162 115 94 89 82 82 45 41 27 21 5 360 356 306 327 354 333 339
177 204 94 158 157 149 156 163 163 160 168 181 178 163 141 132 116 115 117 115 117 127 134 131 165 123 113 96 90 61 50 52 32 23 6 17 10 341 7 6 352 328 343
167 173 184 182 164 152 152 161 165 179 174 173 162 151 141 133 125 124 118 117 129 128 140 160 132 121 113 111 114 101 96 57 68 50 4 10 18 25 14 353 347 338 355
172 173 178 182 179 153 177 159 176 182 166 165 156 146 135 134 131 122 123 128 129 148 150 132 118 122 128 128 121 123 81 13 62 113 33 277 89 59 17 345 340 355 332
178 180 182 176 166 155 155 156 166 170 149 146 139 141 142 138 130 126 126 133 160 140 130 127 132 121 94 60 18 0 338 60 336 291 304 72 148 155 191 358 347 324 318
182 181 177 171 167 163 163 157 136 141 144 143 145 140 135 129 128 132 147 145 140 131 133 142 138 144 96 96 64 19 325 322 309 19 0 337 164 199 229 227 270 260 279
177 178 177 175 171 168 169 161 151 151 153 150 144 137 137 139 140 148 148 149 142 137 146 140 142 107 112 105 63 359 301 308 3 344 353 338 82 60 28 10 333 307 297
174 177 173 168 170 169 164 157 160 161 160 148 145 145 147 143 151 158 158 145 144 146 142 147 145 114 112 117 60 324 281 276 247 258 333 302 99 63 34 339 332 316 315
166 169 162 163 164 170 164 163 163 162 158 150 150 153 149 154 160 163 152 152 150 148 149 145 143 122 126 131 91 335 304 332 345 28 45 24 84 46 21 351 323 319 306
148 154 156 158 162 165 163 168 165 161 157 155 153 150 156 158 167 150 153 150 151 152 147 139 137 118 130 142 111 9 323 348 20 351 93 67 63 30 3 335 325 312 344
135 142 153 161 161 163 163 168 163 164 154 148 147 156 168 159 146 148 149 152 151 138 134 131 123 146 142 153 150 108 346 34 329 312 55 101 40 12 352 342 306 330 320
130 147 156 164 163 163 169 171 165 155 148 151 162 159 152 151 147 149 149 151 139 147 147 154 152 163 148 162 176 164 130 86 339 322 1 6 352 337 315 312 307 313 310
140 149 162 167 164 170 180 169 163 150 153 157 156 155 154 147 149 151 153 147 151 158 161 166 178 167 156 164 168 178 177 199 265 17 8 344 316 319 322 344 322 302 285
144 159 170 175 167 181 185 167 154 151 154 155 156 155 152 149 153 150 153 148 165 167 162 155 159 140 134 133 140 167 197 220 246 23 331 293 279 268 258 295 331 328 314
156 169 181 178 175 185 190 161 155 156 159 157 155 154 150 151 151 94 111 136 40 107 148 134 115 129 94 86 95 81 56 43 20 336 301 297 309 327 319 283 307 316 322
174 174 191 177 179 187 190 160 158 159 162 161 159 156 152 152 134 125 86 65 82 81 88 77 103 79 113 115 99 81 81 306 314 299 279 265 327 310 286 284 318 342 358